CAPE
2 2 1 1 0 0 0 0 0 0 0 0 0 0 0 0 0 0 0 0 0 0 0 0 0 0 0 0 0 0 0 0 0 0 0 0 0 0 0 0 0 0 0 0 5
1 1 1 1 2 1 0 0 0 0 0 0 0 0 0 0 0 0 0 0 0 0 0 0 0 0 0 0 0 0 0 0 0 0 0 0 0 0 0 0 0 0 0 0 0
0 0 0 1 3 2 2 1 0 0 0 0 0 0 0 0 0 0 0 0 0 0 0 0 0 0 0 0 0 0 0 0 0 0 0 0 0 0 0 0 0 0 0 0 0
0 0 0 1 1 2 3 2 1 0 0 0 0 0 0 0 0 0 0 0 0 0 0 0 0 0 0 0 0 0 0 0 0 0 0 0 0 0 0 0 0 0 0 0 0
0 0 0 0 0 1 1 1 0 0 0 0 0 0 0 0 0 0 0 0 0 0 0 0 0 0 0 0 0 0 0 0 0 0 0 0 0 0 0 0 0 0 0 0 0
0 0 0 0 0 0 0 0 0 0 0 0 0 0 0 0 0 0 0 0 0 0 0 0 0 0 0 0 0 0 0 0 0 0 0 0 0 0 0 0 0 0 0 0 0
0 0 0 0 0 0 0 0 0 0 0 0 0 0 0 0 0 0 0 0 0 0 0 0 0 0 0 0 0 0 0 0 0 0 0 0 0 0 0 0 0 0 0 0 0
0 0 0 0 0 0 0 0 0 0 0 0 0 0 0 0 0 0 0 0 0 0 0 0 0 0 0 0 0 0 0 0 0 0 0 0 0 0 0 0 0 0 0 0 0
0 0 0 0 0 0 0 0 0 0 0 0 0 0 0 0 0 0 0 0 0 0 0 0 0 0 0 0 0 0 0 0 0 0 0 0 0 0 0 0 0 0 0 0 0
0 0 0 0 0 0 0 0 0 0 0 0 0 0 0 0 0 0 0 0 0 0 0 0 0 0 0 0 0 0 0 0 0 0 0 0 0 0 0 0 0 0 0 0 0
0 0 0 0 0 0 0 0 0 0 0 0 0 0 0 0 0 0 0 0 0 0 0 0 0 0 0 0 0 0 0 0 0 0 0 0 0 0 0 0 0 0 0 0 0
0 0 0 0 0 0 0 0 0 0 0 0 0 0 0 0 0 0 0 0 0 0 0 0 0 0 0 0 0 0 0 0 0 0 2 0 0 0 0 0 0 0 0 0 0
0 0 0 0 0 0 0 0 0 0 0 0 0 0 0 0 0 0 0 0 0 0 0 0 0 0 0 0 0 0 0 0 8 8 17 34 4 0 0 0 0 0 0 0 0
0 0 0 0 0 0 0 0 0 0 0 0 0 0 0 0 0 0 0 0 0 0 0 0 0 0 0 0 0 0 0 0 4 17 0 34 0 0 0 2 2 1 1 0 0
0 0 0 0 0 0 0 0 0 0 0 0 0 0 0 0 0 0 0 0 0 0 0 0 0 0 1 0 1 0 1 0 0 0 0 0 0 0 0 0 12 7 2 0 0
0 0 0 0 0 0 0 0 0 0 0 0 0 0 0 0 0 0 0 0 0 10 3 9 0 0 0 0 0 1 2 0 0 0 0 1 9 0 0 1 0 0 4 16 8
0 0 0 0 0 0 0 0 0 0 0 0 0 0 0 0 0 0 0 0 0 2 0 0 0 0 0 0 0 17 8 0 0 0 0 0 4 0 0 0 0 4 43 47 56
0 0 0 0 0 0 0 0 0 0 0 0 0 0 0 0 0 0 0 0 0 1 0 0 0 0 0 0 0 0 5 0 0 0 0 0 0 0 0 21 65 97 51 133 60
0 0 0 0 0 0 0 0 0 0 0 0 0 0 0 0 0 0 0 0 7 0 0 0 0 0 0 0 0 0 0 0 4 0 0 0 0 0 2 49 80 58 2 0 0
0 0 0 0 0 0 0 0 0 0 0 0 0 0 0 0 0 0 0 0 0 0 0 1 0 0 0 0 0 0 0 1 0 0 0 0 0 0 0 77 40 5 0 0 0
0 0 0 0 0 0 0 0 0 0 0 0 0 0 0 0 0 0 0 0 0 1 0 2 2 0 0 0 0 0 0 6 2 1 0 0 0 0 0 0 0 0 0 0 0
0 0 0 0 0 0 0 0 0 0 0 0 0 0 6 0 0 0 1 5 16 11 9 2 2 0 0 0 0 0 6 2 10 3 1 2 0 0 0 0 3 0 0 0 0
0 0 0 0 0 0 0 0 0 0 0 0 0 2 4 3 0 7 0 0 0 0 0 0 1 0 0 0 0 0 0 19 11 1 0 4 0 0 0 0 0 0 0 0 0
0 0 0 0 0 0 0 0 0 0 0 0 0 4 5 1 0 1 3 0 5 17 15 24 0 0 0 0 0 0 0 0 6 3 0 0 0 0 0 0 0 0 0 0 0
0 0 0 0 0 0 0 0 0 0 0 0 0 1 8 0 0 0 0 0 0 0 0 0 0 1 0 0 1 3 2 2 1 1 1 0 2 1 0 0 0 0 0 0 0
0 0 0 0 0 0 0 0 0 0 0 0 0 0 4 0 2 0 0 0 9 0 3 0 0 0 0 0 0 0 8 1 2 0 1 1 0 0 0 0 0 0 0 0 0
0 0 0 0 0 0 0 0 0 0 0 0 0 3 0 0 0 0 0 0 0 0 0 1 0 0 0 0 0 0 0 0 0 0 0 0 0 0 0 0 0 0 0 0 0
CIN
-0 -0 -0 -0 -0 -0 -0 -0 -0 -0 -0 -0 -0 -0 -0 -0 -0 -0 -0 -0 -0 -0 -0 -0 -0 -0 -0 -0 -0 -0 -0 -0 -0 -0 -0 -0 -0 -0 -0 -0 -0 -0 -0 -0 -30
-0 -0 -0 -0 -0 -0 -0 -0 -0 -0 -0 -0 -0 -0 -0 -0 -0 -0 -0 -0 -0 -0 -0 -0 -0 -0 -0 -0 -0 -0 -0 -0 -0 -0 -0 -0 -0 -0 -0 -0 -0 -0 -0 -0 -0
-0 -0 -0 -0 -0 -0 -0 -0 -0 -0 -0 -0 -0 -0 -0 -0 -0 -0 -0 -0 -0 -0 -0 -0 -0 -0 -0 -0 -0 -0 -0 -0 -0 -0 -0 -0 -0 -0 -0 -0 -0 -0 -0 -0 -0
-0 -0 -0 -0 -0 -0 -0 -0 -0 -0 -0 -0 -0 -0 -0 -0 -0 -0 -0 -0 -0 -0 -0 -0 -0 -0 -0 -0 -0 -0 -0 -0 -0 -0 -0 -0 -0 -0 -0 -0 -0 -0 -0 -0 -0
-0 -0 -0 -0 -0 -0 -0 -0 -0 -0 -0 -0 -0 -0 -0 -0 -0 -0 -0 -0 -0 -0 -0 -0 -0 -0 -0 -0 -0 -0 -0 -0 -0 -0 -0 -0 -0 -0 -0 -0 -0 -0 -0 -0 -0
-0 -0 -0 -0 -0 -0 -0 -0 -0 -0 -0 -0 -0 -0 -0 -0 -0 -0 -0 -0 -0 -0 -0 -0 -0 -0 -0 -0 -0 -0 -0 -0 -0 -0 -0 -0 -0 -0 -0 -0 -0 -0 -0 -0 -0
-0 -0 -0 -0 -0 -0 -0 -0 -0 -0 -0 -0 -0 -0 -0 -0 -0 -0 -0 -0 -0 -0 -0 -0 -0 -0 -0 -0 -0 -0 -0 -0 -0 -0 -0 -0 -0 -0 -0 -0 -0 -0 -0 -0 -0
-0 -0 -0 -0 -0 -0 -0 -0 -0 -0 -0 -0 -0 -0 -0 -0 -0 -0 -0 -0 -0 -0 -0 -0 -0 -0 -0 -0 -0 -0 -0 -0 -0 -0 -0 -0 -0 -0 -0 -0 -0 -0 -0 -0 -0
-0 -0 -0 -0 -0 -0 -0 -0 -0 -0 -0 -0 -0 -0 -0 -0 -0 -0 -0 -0 -0 -0 -0 -0 -0 -0 -0 -0 -0 -0 -0 -0 -0 -0 -0 -0 -0 -0 -0 -0 -0 -0 -0 -0 -0
-0 -0 -0 -0 -0 -0 -0 -0 -0 -0 -0 -0 -0 -0 -0 -0 -0 -0 -0 -0 -0 -0 -0 -0 -0 -0 -0 -0 -0 -0 -0 -0 -0 -0 -0 -0 -0 -0 -0 -0 -0 -0 -0 -0 -0
-0 -0 -0 -0 -0 -0 -0 -0 -0 -0 -0 -0 -0 -0 -0 -0 -0 -0 -0 -0 -0 -0 -0 -0 -0 -0 -0 -0 -0 -0 -0 -0 -0 -0 -0 -0 -0 -0 -0 -0 -0 -0 -0 -0 -0
-0 -0 -0 -0 -0 -0 -0 -0 -0 -0 -0 -0 -0 -0 -0 -0 -0 -0 -0 -0 -0 -0 -0 -0 -0 -0 -0 -2 -0 -0 -0 -0 -0 -0 -7 -0 -4 -0 -0 -0 -0 -0 -0 -0 -0
-0 -0 -0 -0 -0 -0 -0 -0 -0 -0 -0 -0 -0 -0 -0 -0 -0 -0 -0 -0 -0 -0 -0 -0 -0 -0 -0 -0 -0 -0 -0 -0 -8 -39 -63 -62 -45 -0 -18 -0 -0 -0 -0 -0 -0
-0 -0 -0 -0 -0 -0 -0 -0 -0 -0 -0 -0 -0 -0 -0 -0 -0 -0 -0 -0 -0 -0 -0 -0 -0 -0 -0 -0 -0 -0 -0 -0 -15 -32 -0 -61 -0 -0 -0 -151 -113 -69 -4 -0 -0
-0 -0 -0 -0 -0 -0 -0 -0 -0 -0 -0 -0 -0 -0 -0 -0 -0 -0 -0 -0 -0 -0 -0 -0 -0 -0 -2 -0 -6 -0 -5 -0 -0 -1 -0 -0 -0 -0 -0 -0 -84 -78 -37 -0 -0
-0 -0 -0 -0 -0 -0 -0 -0 -0 -0 -0 -0 -0 -0 -0 -0 -0 -0 -0 -0 -0 -5 -13 -15 -0 -0 -0 -0 -0 -2 -2 -0 -0 -0 -0 -108 -59 -0 -0 -16 -0 -0 -56 -40 -53
-0 -0 -0 -0 -0 -0 -0 -0 -0 -0 -0 -0 -0 -0 -0 -0 -0 -0 -0 -0 -0 -2 -0 -0 -0 -0 -0 -1 -0 -7 -3 -2 -0 -0 -0 -0 -14 -0 -0 -0 -0 -72 -74 -64 -63
-0 -0 -0 -0 -0 -0 -0 -0 -0 -0 -0 -0 -0 -0 -0 -0 -0 -0 -0 -0 -0 -3 -0 -0 -0 -0 -0 -0 -0 -0 -15 -0 -3 -0 -0 -0 -0 -0 -11 -44 -38 -43 -144 -110 -169
-0 -0 -0 -0 -0 -0 -0 -0 -0 -0 -0 -0 -0 -0 -0 -0 -0 -0 -0 -1 -7 -1 -0 -0 -0 -0 -0 -0 -0 -0 -0 -0 -8 -0 -0 -0 -0 -0 -10 -35 -67 -103 -72 -0 -0
-0 -0 -0 -0 -0 -0 -0 -0 -0 -0 -0 -0 -0 -0 -0 -0 -0 -0 -0 -0 -2 -1 -0 -2 -0 -0 -0 -0 -0 -0 -0 -2 -0 -0 -0 -0 -0 -0 -0 -33 -99 -75 -0 -0 -0
-0 -0 -0 -0 -0 -0 -0 -0 -0 -0 -0 -0 -0 -0 -0 -0 -0 -0 -0 -0 -0 -15 -0 -0 -0 -0 -0 -0 -0 -0 -0 -2 -1 -1 -0 -0 -0 -0 -0 -11 -0 -0 -0 -0 -116
-0 -0 -0 -0 -0 -0 -0 -0 -0 -0 -0 -0 -0 -0 -1 -0 -0 -0 -2 -10 -4 -1 -0 -0 -0 -0 -0 -0 -0 -7 -2 -7 -0 -5 -12 -8 -0 -0 -0 -0 -33 -0 -0 -0 -0
-0 -0 -0 -0 -0 -0 -0 -0 -0 -0 -0 -0 -0 -3 -8 -11 -3 -8 -0 -1 -0 -3 -1 -0 -0 -0 -0 -0 -0 -0 -0 -3 -0 -0 -0 -1 -0 -0 -0 -0 -0 -0 -0 -0 -19
-0 -0 -0 -0 -0 -0 -0 -0 -0 -0 -0 -0 -0 -1 -2 -2 -3 -11 -14 -6 -6 -4 -1 -1 -0 -0 -0 -0 -0 -0 -0 -0 -0 -1 -0 -0 -0 -0 -0 -0 -0 -0 -0 -0 -46
-0 -0 -0 -0 -0 -0 -0 -0 -0 -0 -0 -0 -0 -0 -2 -0 -0 -0 -0 -0 -1 -0 -1 -0 -0 -0 -0 -0 -0 -0 -0 -0 -0 -1 -0 -0 -1 -0 -0 -0 -0 -0 -0 -0 -0
-0 -0 -0 -0 -0 -0 -0 -0 -0 -0 -0 -0 -0 -0 -5 -0 -1 -0 -0 -0 -0 -0 -1 -3 -0 -0 -0 -0 -0 -1 -1 -0 -0 -0 -0 -0 -0 -0 -0 -0 -0 -0 -0 -0 -0
-0 -0 -0 -0 -0 -0 -0 -0 -0 -0 -0 -0 -0 -3 -0 -0 -0 -0 -0 -0 -0 -0 -0 -0 -0 -0 -0 -0 -0 -0 -0 -0 -0 -0 -0 -0 -0 -0 -0 -0 -0 -0 -0 -0 -0
Wind_Speed
8 6 5 5 5 6 8 9 10 11 13 15 17 18 21 23 23 15 20 17 16 23 23 23 23 19 20 21 24 27 35 40 39 41 45 42 45 44 39 38 37 28 20 15 6
9 7 6 5 4 3 3 9 10 11 13 16 19 22 28 28 17 17 10 14 16 20 20 24 25 21 18 19 19 23 35 38 34 36 40 43 43 40 41 41 37 31 24 23 14
11 9 8 7 5 4 4 5 11 11 12 15 20 24 29 28 21 17 11 14 17 19 18 21 22 23 26 26 24 27 34 37 40 41 43 46 47 43 43 48 37 35 34 28 32
15 14 11 9 8 7 5 2 9 9 9 11 11 21 25 20 25 14 12 14 17 17 21 22 21 24 27 27 27 36 37 38 39 39 43 47 46 47 45 50 44 40 37 33 31
19 18 17 13 8 8 8 9 4 4 2 10 19 20 23 23 20 12 12 13 16 18 19 24 25 28 30 32 34 35 36 39 39 39 40 41 45 51 53 50 50 46 41 38 36
26 22 21 21 16 7 12 12 12 19 23 24 21 20 21 26 15 13 13 13 14 14 22 25 27 29 30 31 32 34 40 42 43 44 44 46 46 45 48 49 50 51 48 43 42
32 32 27 25 22 25 9 17 18 19 23 23 21 20 22 18 15 12 12 13 15 18 23 23 26 28 30 34 27 33 42 42 39 38 43 43 54 52 48 49 57 54 50 48 45
36 36 34 29 26 29 34 26 22 22 22 23 20 20 22 13 17 11 17 20 14 14 19 19 19 21 26 27 32 37 37 45 39 38 40 37 56 47 45 48 54 57 58 53 48
37 39 38 35 38 34 26 21 19 20 19 19 21 21 23 19 18 14 21 25 27 26 25 23 24 25 27 32 36 31 43 42 45 35 40 38 54 46 42 46 48 49 50 53 55
38 40 39 36 39 34 28 23 24 21 20 19 16 22 19 25 23 17 19 22 22 22 24 27 27 29 27 30 40 40 40 42 47 47 47 48 52 45 40 39 36 41 38 44 48
40 41 40 40 35 31 32 28 35 26 26 21 16 17 22 21 25 21 20 24 24 27 32 28 32 32 31 27 32 40 44 47 47 46 52 55 55 51 45 42 40 39 42 42 43
40 41 41 35 27 22 25 31 34 25 31 20 12 13 15 20 27 23 19 23 27 34 32 32 34 28 33 34 36 41 47 49 45 40 46 50 57 51 44 44 37 39 42 44 46
42 43 40 31 20 25 24 36 30 28 26 23 22 20 23 24 25 24 20 26 30 30 29 32 31 35 34 38 38 36 35 39 42 39 44 43 51 50 48 47 48 46 38 36 45
45 42 41 42 27 29 31 32 28 25 25 23 23 22 27 21 23 27 24 24 26 34 29 27 27 28 37 37 34 30 31 30 35 38 39 29 50 51 50 53 50 46 45 42 41
55 49 39 31 26 30 31 30 25 21 32 25 28 20 39 30 33 30 20 15 20 18 20 30 40 34 19 24 23 18 19 19 21 22 37 18 26 38 39 43 42 42 42 40 37
50 21 31 29 26 25 32 27 22 26 30 25 32 42 39 29 22 25 30 13 8 12 18 30 36 36 41 41 31 24 16 9 8 8 24 35 17 28 24 11 33 44 45 41 37
36 17 25 27 30 33 32 29 27 33 34 34 39 36 29 36 33 33 30 23 21 9 6 9 29 25 23 31 30 25 16 18 10 4 19 8 17 24 30 36 40 40 41 44 44
39 22 24 24 23 32 32 26 31 35 33 36 35 27 31 34 30 31 28 21 25 31 25 23 32 28 35 32 30 28 17 13 18 16 20 37 24 24 30 35 30 28 32 37 40
37 27 24 31 27 30 34 35 30 31 32 34 31 28 30 30 32 34 31 17 22 26 25 25 16 41 41 38 28 23 12 15 15 16 32 28 28 36 30 24 23 30 38 43 44
35 27 24 26 25 30 30 30 29 30 28 27 31 22 29 30 30 33 24 11 23 24 27 14 19 24 32 40 25 18 28 25 20 14 20 16 15 13 31 28 30 35 39 42 37
29 27 26 32 23 31 35 31 27 24 24 24 27 22 22 26 28 24 16 12 23 14 19 11 9 11 12 13 9 20 28 26 27 21 15 21 20 20 27 32 30 37 40 40 35
31 28 28 33 33 33 34 33 25 28 24 27 26 24 23 24 23 20 15 17 19 17 18 17 17 15 14 13 10 11 21 27 21 17 12 18 32 20 24 30 37 41 39 40 36
35 23 30 33 35 36 31 29 24 26 29 28 23 21 24 21 22 17 12 16 14 21 20 19 18 22 21 18 20 21 26 25 29 28 25 23 16 37 45 42 41 44 41 40 38
28 28 31 26 36 32 29 26 26 25 28 30 25 20 19 17 19 13 15 13 11 14 12 9 15 13 13 15 15 22 20 23 29 29 37 29 45 48 43 43 43 42 38 37 36
25 27 28 27 30 22 21 21 30 32 26 27 22 24 21 19 19 11 12 16 15 13 13 12 13 14 15 18 19 20 19 16 16 33 34 48 49 45 39 39 37 37 37 36 34
29 28 26 21 23 23 23 34 29 26 30 29 26 21 24 19 14 28 23 16 11 12 9 13 17 18 19 17 15 17 14 14 11 12 32 41 47 30 42 41 39 37 37 35 34
28 27 23 23 25 28 29 30 30 31 24 20 20 26 26 25 19 23 18 13 7 7 10 17 20 23 23 24 16 17 21 21 20 19 23 29 45 46 47 42 38 36 36 35 33
Wind_Direction
17 10 351 322 310 294 280 272 266 265 267 271 274 278 284 289 278 3 324 339 338 316 313 313 305 303 301 296 289 288 279 277 279 279 280 282 276 274 285 282 286 294 301 302 317
10 5 2 356 343 349 297 269 262 262 266 272 281 290 317 340 9 347 16 17 360 339 324 315 309 311 299 302 296 282 280 281 286 287 285 284 282 284 281 277 278 291 287 279 293
358 356 351 352 358 340 17 270 263 257 259 267 278 291 342 343 350 353 38 14 2 353 342 328 321 311 301 298 288 284 280 286 285 285 285 284 281 283 279 268 274 281 290 290 265
340 337 341 357 12 21 25 354 261 252 251 258 257 5 357 7 332 12 23 9 2 354 343 332 324 311 306 300 298 287 286 286 287 286 284 281 283 280 276 269 272 278 286 288 282
331 330 325 323 347 18 29 37 41 252 35 29 14 9 3 346 349 30 20 13 3 356 338 330 325 317 309 308 304 296 296 293 293 292 290 288 281 278 273 274 272 273 278 281 279
327 325 321 315 311 348 34 37 37 22 8 4 11 11 359 336 31 42 30 21 5 357 339 332 326 323 314 310 304 304 299 296 294 290 289 287 285 284 277 277 274 269 269 274 275
329 326 320 315 309 308 15 29 29 22 9 4 9 10 354 350 19 28 21 7 1 354 339 336 333 325 321 314 316 311 301 299 296 296 292 292 281 277 280 277 271 269 269 269 271
330 328 324 316 311 322 354 11 18 16 15 9 13 8 354 20 6 9 357 346 350 349 342 342 336 330 320 317 310 305 301 295 298 296 293 290 278 283 281 276 270 268 266 265 267
330 329 326 322 338 1 14 13 10 11 17 16 8 5 359 15 5 6 359 345 340 337 335 336 330 319 320 312 308 308 298 298 297 300 296 290 282 284 284 278 271 268 265 264 263
330 329 327 325 348 5 12 14 12 18 21 18 14 358 7 1 2 358 353 345 339 336 333 328 319 313 310 308 301 302 303 302 299 299 298 293 286 288 293 288 282 270 271 266 263
330 329 328 336 4 10 9 16 7 9 4 352 350 341 340 350 349 340 349 341 336 328 323 324 313 309 310 308 306 305 302 299 301 303 296 289 285 284 287 286 281 279 276 270 269
330 329 330 7 13 15 17 10 4 2 355 358 355 359 354 1 346 344 350 333 330 324 324 320 312 316 312 309 308 304 303 304 309 306 299 294 285 282 285 282 284 282 277 272 272
329 329 329 12 15 21 16 1 6 11 2 11 20 9 9 2 351 347 349 334 331 325 321 316 317 313 313 306 307 309 312 311 314 316 304 297 290 283 281 280 278 274 282 275 271
330 328 2 2 21 12 7 6 9 14 6 7 10 14 6 358 354 359 346 340 333 323 321 316 318 318 307 307 314 313 320 318 314 311 305 304 289 274 272 272 271 270 268 273 272
347 352 5 16 16 11 6 6 13 21 355 11 12 24 352 349 340 344 348 352 340 336 333 318 295 265 314 316 316 299 323 324 324 317 264 322 306 260 282 253 244 273 275 278 273
334 358 15 22 19 14 6 8 15 8 357 2 357 348 350 3 8 12 13 33 4 6 315 267 297 309 301 292 316 323 322 314 280 279 247 296 313 244 311 269 280 272 274 281 284
323 324 17 20 15 9 9 11 8 3 359 355 351 354 3 8 4 3 4 7 7 336 312 295 328 338 342 324 325 332 337 332 327 261 240 269 234 230 270 269 279 283 287 279 275
321 16 23 24 20 13 10 17 5 2 4 355 356 5 7 7 7 3 5 9 4 348 349 348 332 340 315 322 325 323 333 334 330 328 260 266 241 234 303 296 297 305 297 296 289
331 19 23 21 21 19 14 13 10 7 1 360 8 11 9 10 5 1 3 20 17 9 1 349 344 308 309 310 320 318 297 313 297 266 258 252 247 259 308 312 314 307 298 296 290
7 17 24 17 22 17 21 15 13 9 10 12 6 14 3 5 5 1 10 26 13 10 4 5 285 342 333 315 319 315 314 315 313 283 262 306 268 304 309 311 306 305 308 309 300
15 16 24 15 36 20 13 13 11 18 16 12 4 3 4 5 1 3 16 2 10 10 5 349 358 335 318 2 292 278 313 313 312 308 266 264 314 331 312 314 310 306 309 317 311
14 16 19 15 14 15 9 6 15 10 16 7 3 5 3 4 2 4 16 3 4 353 356 3 356 332 319 302 293 318 324 316 309 314 299 245 249 311 318 319 310 304 308 307 313
4 21 15 15 10 8 12 13 17 13 12 8 9 2 6 7 6 4 356 358 353 11 4 0 4 349 356 15 355 337 323 318 309 305 248 250 257 302 301 314 305 293 293 295 298
13 9 9 20 8 10 10 11 10 14 11 4 0 357 2 0 357 344 304 359 349 334 340 324 355 344 323 307 311 301 282 306 305 298 298 250 262 275 299 283 287 291 283 289 284
15 11 11 6 9 9 8 1 4 2 7 3 1 2 357 352 293 323 329 303 339 308 14 22 347 336 312 304 302 297 296 285 280 302 295 287 282 269 303 305 291 288 299 295 286
1 4 6 1 8 6 8 2 2 5 2 2 360 355 357 349 333 285 289 301 334 359 11 14 353 352 327 321 306 304 319 347 348 337 312 297 282 307 286 283 289 290 288 277 275
358 359 2 2 3 1 1 359 357 358 8 0 353 356 355 352 325 282 279 271 281 331 350 8 7 359 352 1 334 20 27 11 350 341 332 267 283 289 278 287 288 290 288 271 270